EW6926 Weather Reports


Display with metric or nautical units.
time (UTC)temp
F
wind
direction
speed
MPH
gust
MPH
rain 1hr
in
rain 24hr
in
rain mn
in
humidity
%
barometer
mb
20260507211523 59 295 6.0 14.0 0.00 0.00 0.00 38 1011.8
20260507211006 60 264 10.0 14.0 0.00 0.00 0.00 39 1011.6
20260507210037 59 283 4.0 9.0 0.00 0.00 0.00 38 1011.7
20260507210006 60 268 7.0 9.0 0.00 0.00 0.00 40 1011.5
20260507205009 59 321 4.0 10.0 0.00 0.00 0.00 39 1011.4
20260507204550 59 260 2.0 10.0 0.00 0.00 0.00 41 1011.7
20260507204004 59 322 5.0 7.0 0.00 0.00 0.00 40 1011.5
20260507203108 59 295 3.0 11.0 0.00 0.00 0.00 41 1011.7
20260507203005 59 290 5.0 11.0 0.00 0.00 0.00 40 1011.5
20260507202005 60 303 4.0 10.0 0.00 0.00 0.00 42 1011.5
20260507201516 59 284 5.0 10.0 0.00 0.00 0.00 41 1011.7
20260507201005 60 298 6.0 10.0 0.00 0.00 0.00 41 1011.7
20260507200030 59 333 4.0 11.0 0.00 0.00 0.00 42 1011.9
20260507195005 60 269 3.0 10.0 0.00 0.00 0.00 40 1011.9
20260507194534 60 316 4.0 15.0 0.00 0.00 0.00 41 1012.0
20260507194005 61 297 4.0 15.0 0.00 0.00 0.00 43 1012.0
20260507193054 60 297 4.0 9.0 0.00 0.00 0.00 43 1012.1
20260507193005 60 352 4.0 10.0 0.00 0.00 0.00 43 1012.0
20260507192005 60 293 3.0 11.0 0.00 0.00 0.00 45 1012.1
20260507191603 60 264 2.0 11.0 0.00 0.00 0.00 44 1012.2
20260507191004 61 250 4.0 9.0 0.00 0.00 0.00 44 1012.1
20260507190012 61 225 3.0 11.0 0.00 0.00 0.00 45 1012.2
20260507190006 62 231 2.0 11.0 0.00 0.00 0.00 45 1012.1
20260507184522 60 297 5.0 13.0 0.00 0.00 0.00 45 1012.4
20260507184005 60 259 2.0 10.0 0.00 0.00 0.00 44 1012.3
20260507183039 59 321 4.0 9.0 0.00 0.00 0.00 44 1012.5
20260507183005 60 318 3.0 9.0 0.00 0.00 0.00 44 1012.4
20260507182009 59 265 7.0 11.0 0.00 0.00 0.00 45 1012.6
20260507181547 59 306 2.0 11.0 0.00 0.00 0.00 46 1012.6
20260507181004 60 289 7.0 11.0 0.00 0.00 0.00 48 1012.6
20260507180056 58 325 5.0 11.0 0.00 0.00 0.00 46 1012.8
20260507180007 58 288 7.0 11.0 0.00 0.00 0.00 47 1012.7
20260507175005 58 285 6.0 10.0 0.00 0.00 0.00 46 1012.9
20260507174509 57 259 3.0 11.0 0.00 0.00 0.00 46 1013.0
20260507174005 58 240 1.0 11.0 0.00 0.00 0.00 45 1012.9
20260507173019 58 272 2.0 7.0 0.00 0.00 0.00 45 1013.2
20260507173007 58 243 2.0 8.0 0.00 0.00 0.00 45 1013.1
20260507172005 57 276 3.0 9.0 0.00 0.00 0.00 47 1013.3
20260507171531 57 307 1.0 15.0 0.00 0.00 0.00 45 1013.4
20260507171007 58 296 4.0 15.0 0.00 0.00 0.00 44 1013.3
20260507170044 57 281 1.0 9.0 0.00 0.00 0.00 48 1013.6
20260507170006 57 248 2.0 9.0 0.00 0.00 0.00 49 1013.5
20260507165005 57 293 4.0 8.0 0.00 0.00 0.00 48 1013.6
20260507164607 56 296 2.0 8.0 0.00 0.00 0.00 48 1013.7
20260507164005 57 351 4.0 9.0 0.00 0.00 0.00 48 1013.6
20260507163006 56 314 3.0 9.0 0.00 0.00 0.00 49 1013.8
20260507162005 56 312 6.0 10.0 0.00 0.00 0.00 47 1013.8
20260507161533 56 273 4.0 8.0 0.00 0.00 0.00 49 1014.0
20260507161009 57 283 4.0 7.0 0.00 0.00 0.00 48 1014.0
20260507160036 55 321 1.0 6.0 0.00 0.00 0.00 49 1014.1
20260507160005 55 324 2.0 6.0 0.00 0.00 0.00 49 1014.0
20260507155004 55 262 2.0 6.0 0.00 0.00 0.00 50 1014.1
20260507154540 55 312 1.0 6.0 0.00 0.02 0.00 50 1014.2
20260507154005 56 307 3.0 6.0 0.00 0.00 0.00 51 1014.2
20260507153051 55 245 2.0 6.0 0.00 0.02 0.00 50 1014.3
20260507153005 56 250 4.0 6.0 0.00 0.00 0.00 50 1014.2
20260507152005 55 265 3.0 4.0 0.00 0.00 0.00 51 1014.3
20260507151603 54 278 1.0 7.0 0.00 0.02 0.00 54 1014.5
20260507150015 54 256 2.0 7.0 0.00 0.02 0.00 53 1014.7
20260507150006 55 272 6.0 7.0 0.00 0.00 0.00 53 1014.6
20260507145004 54 271 5.0 7.0 0.00 0.00 0.00 54 1014.8
20260507144530 54 265 1.0 6.0 0.00 0.05 0.00 53 1014.9
20260507144006 54 253 1.0 6.0 0.00 0.00 0.00 52 1014.9
20260507143036 53 257 4.0 10.0 0.00 0.05 0.00 51 1015.1
20260507143005 53 297 2.0 10.0 0.00 0.00 0.00 51 1015.0
20260507142009 54 285 3.0 6.0 0.00 0.00 0.00 56 1015.2
20260507141553 53 288 2.0 6.0 0.00 0.05 0.00 61 1015.4
20260507141006 53 324 2.0 6.0 0.00 0.00 0.00 63 1015.4
20260507140006 52 255 0.0 7.0 0.00 0.00 0.00 59 1015.5
20260507135005 53 258 0.0 3.0 0.00 0.00 0.00 64 1015.5
20260507134526 52 238 0.0 4.0 0.00 0.08 0.00 63 1015.7
20260507134004 52 278 3.0 3.0 0.00 0.00 0.00 65 1015.6
20260507133027 51 245 0.0 6.0 0.00 0.08 0.00 67 1015.8
20260507133005 51 266 1.0 6.0 0.00 0.00 0.00 66 1015.7
20260507132004 51 276 2.0 4.0 0.00 0.00 0.00 60 1015.8
20260507131540 51 251 0.0 4.0 0.00 0.08 0.00 62 1015.8
20260507131005 52 227 0.0 0.0 0.00 0.00 0.00 70 1015.6
20260507130048 51 138 0.0 1.0 0.00 0.08 0.00 75 1015.7
20260507124559 49 150 0.0 1.0 0.00 0.13 0.00 76 1015.8
20260507124004 49 150 0.0 0.0 0.00 0.00 0.00 76 1015.8
20260507123017 48 162 0.0 1.0 0.00 0.13 0.00 81 1016.0
20260507123004 48 162 0.0 1.0 0.00 0.00 0.00 81 1015.8
20260507122005 48 296 0.0 1.0 0.00 0.00 0.00 85 1015.8
20260507121523 47 300 0.0 0.0 0.00 0.13 0.00 87 1015.8
20260507121004 46 300 0.0 0.0 0.00 0.00 0.00 90 1015.7
20260507120036 44 300 0.0 0.0 0.00 0.13 0.00 96 1015.8
20260507120006 45 300 0.0 0.0 0.00 0.00 0.00 96 1015.7
20260507115005 43 300 0.0 0.0 0.00 0.00 0.00 97 1015.7
20260507114549 42 300 0.0 0.0 0.00 0.15 0.00 97 1015.8
20260507114004 42 300 0.0 0.0 0.00 0.00 0.00 97 1015.6
20260507113103 40 300 0.0 0.0 0.00 0.15 0.00 97 1015.6
20260507113005 41 300 0.0 0.0 0.00 0.00 0.00 97 1015.5
20260507112004 40 300 0.0 0.0 0.00 0.00 0.00 97 1015.4
20260507111520 39 300 0.0 0.0 0.00 0.15 0.00 97 1015.3
20260507111004 39 300 0.0 0.0 0.00 0.00 0.00 97 1015.2
20260507110030 39 300 0.0 0.0 0.00 0.15 0.00 97 1015.3
20260507110007 39 300 0.0 0.0 0.00 0.00 0.00 97 1015.2
20260507105005 39 300 0.0 0.0 0.00 0.00 0.00 97 1015.2
20260507104540 38 300 0.0 0.0 0.00 0.39 0.00 97 1015.2
20260507104004 38 300 0.0 0.0 0.00 0.00 0.00 97 1015.1
20260507103057 38 300 0.0 0.0 0.00 0.39 0.00 96 1015.1
20260507102006 39 300 0.0 0.0 0.00 0.00 0.00 96 1014.9
20260507101515 38 300 0.0 0.0 0.00 0.39 0.00 96 1015.0
20260507101004 39 300 0.0 0.0 0.00 0.00 0.00 95 1014.8
20260507100018 39 300 0.0 0.0 0.00 0.39 0.00 96 1014.9
20260507100005 39 300 0.0 0.0 0.00 0.00 0.00 96 1014.8
20260507095004 40 300 0.0 0.0 0.00 0.00 0.00 95 1014.7
20260507094531 39 300 0.0 0.0 0.00 0.52 0.00 95 1014.9
20260507094005 40 300 0.0 0.0 0.00 0.00 0.00 95 1014.6
20260507093042 40 300 0.0 0.0 0.00 0.52 0.00 95 1014.8
20260507093004 40 300 0.0 0.0 0.00 0.00 0.00 95 1014.6
20260507092005 41 300 0.0 1.0 0.00 0.00 0.00 95 1014.9
20260507091631 40 300 0.0 1.0 0.00 0.52 0.00 95 1015.0
20260507091004 41 300 0.0 1.0 0.00 0.00 0.00 94 1014.9
20260507090010 42 300 0.0 0.0 0.00 0.00 0.00 95 1014.8
20260507090005 41 300 0.0 0.0 0.00 0.52 0.00 95 1014.9
20260507085004 42 300 0.0 0.0 0.00 0.00 0.00 94 1014.8
20260507084529 42 300 0.0 0.0 0.00 0.60 0.00 94 1014.9
20260507084004 42 300 0.0 0.0 0.00 0.00 0.00 94 1014.8
20260507083027 42 300 0.0 0.0 0.00 0.60 0.00 93 1014.9
20260507082004 44 300 0.0 0.0 0.00 0.00 0.00 93 1014.8
20260507081539 43 300 0.0 0.0 0.00 0.60 0.00 93 1014.8
20260507081004 44 300 0.0 0.0 0.00 0.00 0.00 92 1014.7
20260507080048 43 300 0.0 0.0 0.00 0.60 0.00 90 1014.7
20260507080005 44 300 0.0 0.0 0.00 0.00 0.00 90 1014.6
20260507075005 44 300 0.0 0.0 0.00 0.00 0.00 88 1014.7
20260507074601 44 300 0.0 0.0 0.00 0.63 0.00 88 1014.8
20260507074004 45 300 0.0 0.0 0.00 0.00 0.00 87 1014.8
20260507073011 45 300 0.0 0.0 0.00 0.63 0.00 85 1014.9
20260507071523 46 300 0.0 0.0 0.00 0.63 0.00 82 1014.7
20260507071004 46 300 0.0 0.0 0.00 0.00 0.00 82 1014.7
20260507070048 46 300 0.0 0.0 0.00 0.63 0.00 81 1014.8
20260507070009 47 300 0.0 0.0 0.00 0.00 0.00 81 1014.6
20260507064550 47 300 0.0 0.0 0.00 0.69 0.00 77 1014.9
20260507063102 47 300 0.0 0.0 0.00 0.69 0.00 77 1014.7
20260507063010 48 300 0.0 0.0 0.00 0.00 0.00 76 1014.6
20260507062004 48 300 0.0 0.0 0.00 0.00 0.00 76 1014.8
20260507061514 47 300 0.0 0.0 0.00 0.69 0.00 77 1014.8
20260507061004 48 300 0.0 0.0 0.00 0.00 0.00 78 1014.9
20260507060028 47 300 0.0 1.0 0.00 0.69 0.00 77 1015.1
20260507060004 48 300 0.0 1.0 0.00 0.00 0.00 76 1015.0
20260507054536 48 300 0.0 1.0 0.00 0.74 0.00 76 1015.2
20260507054004 48 300 0.0 0.0 0.00 0.00 0.00 77 1015.3
20260507053053 48 300 0.0 1.0 0.00 0.74 0.00 78 1015.5
20260507053005 48 300 0.0 1.0 0.00 0.00 0.00 78 1015.4
20260507052006 48 48 0.0 0.0 0.00 0.00 0.00 77 1015.3
20260507051603 48 48 0.0 0.0 0.00 0.74 0.00 77 1015.4
20260507051004 49 49 0.0 0.0 0.00 0.00 0.00 76 1015.2
20260507050011 48 48 0.0 0.0 0.00 0.74 0.00 73 1015.3
20260507050005 49 48 0.0 0.0 0.00 0.00 0.00 73 1015.2
20260507045005 49 49 0.0 0.0 0.00 0.00 0.00 72 1015.3
20260507044526 49 48 0.0 0.0 0.00 0.76 0.00 71 1015.5
20260507044005 49 48 0.0 1.0 0.00 0.00 0.00 71 1015.3
20260507043036 49 51 0.0 2.0 0.00 0.76 0.00 70 1015.3
20260507043004 49 37 1.0 1.0 0.00 0.00 0.00 71 1015.2
20260507042009 49 37 0.0 1.0 0.00 0.00 0.00 70 1015.2
20260507041549 49 37 0.0 1.0 0.00 0.76 0.00 71 1015.5
20260507041004 50 37 0.0 0.0 0.00 0.00 0.00 70 1015.3
20260507040105 49 37 0.0 3.0 0.00 0.76 0.00 69 1015.2
20260507040005 50 36 1.0 3.0 0.00 0.00 0.76 68 1015.1
20260507035005 50 22 0.0 3.0 0.00 0.00 0.76 69 1015.0
20260507034511 49 18 1.0 3.0 0.00 0.76 0.76 69 1015.1
20260507034004 50 8 0.0 2.0 0.00 0.00 0.76 70 1015.1
20260507033025 50 335 0.0 2.0 0.00 0.76 0.76 69 1015.2
20260507033005 50 335 1.0 2.0 0.00 0.00 0.76 69 1015.2
20260507032009 50 8 0.0 2.0 0.00 0.00 0.76 69 1014.9
20260507031537 50 319 0.0 2.0 0.00 0.76 0.76 69 1014.8
20260507031004 50 32 0.0 2.0 0.00 0.00 0.76 68 1014.6
20260507030048 50 8 0.0 2.0 0.00 0.76 0.76 68 1014.8
20260507030004 50 345 0.0 2.0 0.00 0.00 0.76 68 1014.8
20260507025004 50 24 0.0 2.0 0.00 0.00 0.76 68 1014.4
20260507024611 50 6 0.0 2.0 0.00 0.76 0.76 68 1014.6
20260507024004 51 358 0.0 2.0 0.00 0.00 0.76 67 1014.4
20260507023011 50 26 0.0 4.0 0.00 0.76 0.76 68 1014.6
20260507023004 51 20 1.0 4.0 0.00 0.00 0.76 68 1014.5
20260507022005 51 350 2.0 3.0 0.00 0.00 0.76 69 1014.4
20260507021524 51 4 0.0 3.0 0.00 0.76 0.76 69 1014.5
20260507021004 51 64 1.0 2.0 0.00 0.00 0.76 69 1014.2
20260507020038 51 36 0.0 2.0 0.00 0.76 0.76 70 1014.2
20260507015004 51 24 0.0 2.0 0.00 0.00 0.76 68 1014.0
20260507014552 51 24 0.0 5.0 0.00 0.76 0.76 68 1013.9
20260507014005 52 24 0.0 5.0 0.00 0.00 0.76 68 1013.8
20260507013104 51 13 1.0 4.0 0.00 0.76 0.76 69 1013.7
20260507013004 52 13 2.0 4.0 0.00 0.00 0.76 68 1013.5
20260507012004 52 30 2.0 6.0 0.00 0.00 0.76 69 1013.5
20260507011526 52 58 2.0 6.0 0.00 0.76 0.76 69 1013.5
20260507011004 52 34 0.0 5.0 0.00 0.00 0.76 72 1013.6
20260507010027 52 37 2.0 5.0 0.00 0.76 0.76 74 1013.9
20260507010005 52 331 1.0 5.0 0.00 0.00 0.76 74 1013.8
20260507005004 53 23 1.0 7.0 0.00 0.00 0.76 73 1013.7
20260507004541 52 44 1.0 3.0 0.00 0.76 0.76 77 1014.0
20260507004004 53 45 0.0 2.0 0.00 0.00 0.76 76 1013.8
20260507003055 52 269 0.0 0.0 0.00 0.76 0.76 76 1013.8
20260507003004 53 269 0.0 0.0 0.00 0.00 0.76 76 1013.7
20260507001507 53 269 0.0 0.0 0.00 0.76 0.76 78 1014.1
20260507000018 53 269 0.0 1.0 0.00 0.76 0.76 75 1013.6
20260507000005 53 269 0.0 1.0 0.00 0.00 0.76 75 1013.5
20260506235005 54 269 0.0 2.0 0.00 0.00 0.76 75 1013.5
20260506234529 53 262 0.0 2.0 0.00 0.76 0.76 75 1013.5
20260506234004 54 262 0.0 2.0 0.00 0.00 0.76 74 1013.4
20260506233052 53 8 0.0 2.0 0.00 0.76 0.76 74 1013.4
20260506232004 54 324 0.0 5.0 0.00 0.00 0.76 76 1013.1
20260506231557 53 273 1.0 4.0 0.00 0.76 0.76 77 1013.2
20260506231004 54 317 0.0 0.0 0.00 0.00 0.76 80 1013.1
20260506230009 54 317 0.0 2.0 0.00 0.76 0.76 79 1013.0
20260506230005 54 317 0.0 2.0 0.00 0.00 0.76 79 1012.9
20260506225004 54 33 0.0 2.0 0.00 0.00 0.76 78 1012.8
20260506224517 54 33 0.0 1.0 0.00 0.76 0.76 78 1013.0
20260506224010 54 25 1.0 2.0 0.00 0.00 0.76 78 1012.7
20260506223028 54 8 0.0 2.0 0.00 0.76 0.76 78 1012.7
20260506223004 54 8 0.0 2.0 0.00 0.00 0.76 78 1012.6
20260506222005 54 92 0.0 1.0 0.00 0.00 0.76 78 1012.7
20260506221546 54 92 0.0 1.0 0.00 0.76 0.76 78 1012.9
20260506220055 54 41 0.0 0.0 0.00 0.76 0.76 79 1012.7
20260506215005 54 41 0.0 2.0 0.00 0.00 0.76 80 1012.5
20260506214504 53 318 0.0 0.0 0.00 0.76 0.76 81 1012.5
20260506214004 54 318 0.0 1.0 0.00 0.00 0.76 80 1012.4
20260506213018 53 349 0.0 3.0 0.00 0.76 0.76 79 1012.4
20260506213004 54 349 1.0 3.0 0.00 0.00 0.76 80 1012.2
20260506212004 53 25 4.0 5.0 0.00 0.00 0.76 81 1012.1